[[{"header":{"parameterUnit":"m.s-1","parameterCategory":1,"la1":30.2991,"la2":30.254,"lo1":-89.0895,"lo2":-89.0444,"dy":0.0017,"dx":0.0017,"nx":28,"ny":28,"refTime":"2024-06-14T09:00:00:Z","depth":0,"parameterNumber":2,"parameterNumberName":"U-component_of_WINDS"},"data":[0,0,0,0,0,0,0,0,0,0,0,0,0,0,0,0,0,0,0,0,0,0,0,0,0,0,0,0,0,0,0,0,0,0,0,0,0,0,0,0,0,0,0,0,0,0,0,0,0,0,0,0,0,0,0,0,0,0,-1.8367,-1.8366,0,-1.8309,-1.8309,-1.8308,-1.8263,-1.8262,-1.8262,-1.8261,-1.8203,-1.8202,-1.8201,0,0,0,0,0,0,0,0,0,0,0,0,0,-1.844,-1.8439,-1.8367,-1.8366,-1.8365,-1.8309,-1.8309,-1.8308,-1.8263,-1.8262,-1.8262,-1.8261,-1.8203,-1.8202,-1.8201,0,0,0,0,0,0,0,0,0,0,0,0,0,-1.8398,-1.8438,-1.8367,-1.8336,-1.8333,-1.831,-1.8309,-1.8308,-1.8263,-1.8262,-1.8262,-1.8261,-1.8204,-1.8202,-1.82,-1.8203,0,0,-1.8195,-1.8194,0,0,0,0,0,0,0,0,-1.84,-1.8395,-1.8341,-1.8338,-1.8334,-1.8292,-1.8313,-1.8273,-1.8263,-1.8289,-1.8261,-1.8261,-1.8233,-1.8229,-1.822,-1.82,-1.8198,-1.8195,-1.8194,-1.8193,-1.8193,0,0,0,0,0,0,0,-1.8403,-1.8397,-1.8344,-1.8341,-1.8336,-1.8326,-1.8319,-1.8305,-1.8266,-1.8287,-1.8284,-1.8278,-1.8231,-1.8222,-1.8218,-1.8197,-1.8195,-1.8193,-1.8192,-1.8192,-1.8181,-1.8182,0,0,0,0,0,0,-1.8411,-1.84,-1.8346,-1.8342,-1.8366,-1.8325,-1.8318,-1.8307,-1.8266,-1.8259,-1.8278,-1.8276,-1.8225,-1.822,-1.8216,-1.8218,-1.8193,-1.8192,-1.8191,-1.818,-1.8181,-1.8182,0,0,0,0,0,0,-1.8412,-1.8406,-1.8348,-1.837,-1.8362,-1.8325,-1.8313,-1.8306,-1.8296,-1.8259,-1.8252,-1.8275,-1.8224,-1.8218,-1.8207,-1.8216,-1.8191,-1.8189,-1.8179,-1.818,-1.8181,-1.8222,0,0,0,0,0,0,-1.8415,-1.8407,-1.8407,-1.8371,-1.8361,-1.834,-1.8313,-1.8305,-1.8293,-1.8289,-1.8254,-1.8248,-1.8223,-1.821,-1.8206,-1.8213,-1.8188,-1.8178,-1.818,-1.8181,-1.822,-1.8225,-1.8229,0,0,0,0,0,-1.8417,-1.842,-1.8407,-1.8401,-1.836,-1.834,-1.8335,-1.8306,-1.8294,-1.8294,-1.8271,-1.8249,-1.8216,-1.821,-1.8204,-1.8211,-1.8178,-1.8179,-1.8181,-1.8218,-1.8224,-1.8228,0,0,0,0,0,0,-1.8457,-1.8414,-1.84,-1.839,-1.8369,-1.8333,-1.8331,-1.8312,-1.8294,-1.8291,-1.8257,-1.8249,-1.8243,-1.8226,-1.822,-1.8213,-1.8194,-1.8195,-1.8224,-1.8229,-1.8233,-1.8237,-1.8186,0,0,0,0,0,-1.8465,-1.8452,-1.8415,-1.8411,-1.8401,-1.8369,-1.8359,-1.8339,-1.8316,-1.8307,-1.8282,-1.8261,-1.8246,-1.8237,-1.8221,-1.8218,-1.8211,-1.822,-1.8225,-1.8228,-1.8229,-1.8229,-1.8233,-1.8187,-1.8187,-1.8187,0,0,-1.848,-1.8455,-1.8449,-1.8418,-1.84,-1.8388,-1.8361,-1.8349,-1.8341,-1.8305,-1.8293,-1.8276,-1.825,-1.8244,-1.824,-1.8229,-1.8241,-1.823,-1.8234,-1.8232,-1.8231,-1.8236,-1.824,-1.8188,-1.8188,-1.8188,0,0,-1.8502,-1.8482,-1.8477,-1.846,-1.8432,-1.8411,-1.8411,-1.8378,-1.8365,-1.8353,-1.8327,-1.8317,-1.8291,-1.8275,-1.8263,-1.8284,-1.8264,-1.828,-1.8302,-1.8303,-1.8306,-1.8309,-1.8318,-1.8322,-1.8281,-1.8281,-1.8281,0,-1.8524,-1.8505,-1.8476,-1.8467,-1.8456,-1.8424,-1.842,-1.8405,-1.8374,-1.8367,-1.8356,-1.8325,-1.8305,-1.8297,-1.8302,-1.8293,-1.8293,-1.8283,-1.8308,-1.8311,-1.8313,-1.8322,-1.8325,-1.8284,-1.8283,-1.8283,-1.8283,0,-1.8535,-1.8523,-1.8523,-1.8495,-1.8483,-1.8477,-1.8448,-1.844,-1.8423,-1.8403,-1.8394,-1.837,-1.835,-1.8346,-1.8328,-1.8336,-1.8331,-1.8314,-1.8294,-1.832,-1.8328,-1.833,-1.8287,-1.8286,-1.8285,-1.8285,0,0,-1.8577,-1.8537,-1.8537,-1.8525,-1.8495,-1.8486,-1.848,-1.8461,-1.8455,-1.8436,-1.8431,-1.8412,-1.8398,-1.8385,-1.8366,-1.8366,-1.8387,-1.835,-1.8349,-1.8359,-1.8396,-1.8409,-1.8413,-1.8374,-1.8375,-1.8375,-1.8399,0,-1.8595,-1.8581,-1.8556,-1.8551,-1.854,-1.8513,-1.8507,-1.8489,-1.8472,-1.8462,-1.8444,-1.8431,-1.8413,-1.8405,-1.8405,-1.8385,-1.8394,-1.8383,-1.837,-1.837,-1.8377,-1.8416,-1.8428,-1.8452,-1.8401,-1.8402,-1.8402,0,-1.8612,-1.8597,-1.8591,-1.8565,-1.856,-1.8555,-1.8538,-1.8528,-1.8508,-1.8496,-1.8484,-1.8463,-1.8457,-1.844,-1.8432,-1.8425,-1.8419,-1.8409,-1.8409,-1.8406,-1.8387,-1.8415,-1.8458,-1.8462,-1.8406,-1.8406,-1.8406,0,-1.8645,-1.8623,-1.8617,-1.8608,-1.8577,-1.8575,-1.8562,-1.8542,-1.8533,-1.8519,-1.8513,-1.8498,-1.849,-1.8479,-1.8456,-1.8445,-1.8451,-1.8432,-1.8442,-1.8443,-1.8443,-1.8444,-1.8487,-1.844,-1.844,-1.844,-1.844,0,-1.8667,-1.8665,-1.8631,-1.8627,-1.8625,-1.8599,-1.8597,-1.8582,-1.8565,-1.8559,-1.8534,-1.8529,-1.8499,-1.8491,-1.8473,-1.8471,-1.8467,-1.8458,-1.8453,-1.846,-1.8461,-1.8455,-1.8453,-1.8441,-1.844,-1.844,-1.844,0,-1.8702,-1.868,-1.8672,-1.8645,-1.8638,-1.8638,-1.8615,-1.8611,-1.8594,-1.8587,-1.8584,-1.8558,-1.8548,-1.8524,-1.8507,-1.8496,-1.8498,-1.8489,-1.8505,-1.8502,-1.8514,-1.8514,-1.8554,-1.8559,-1.8509,-1.851,-1.851,0,-1.8717,-1.8715,-1.8689,-1.8684,-1.8673,-1.8664,-1.8656,-1.8631,-1.8624,-1.8604,-1.8603,-1.8592,-1.8581,-1.8566,-1.8546,-1.8534,-1.8525,-1.8541,-1.8523,-1.8531,-1.8527,-1.8527,-1.8528,-1.8544,-1.8545,-1.8545,-1.8546,0,-1.8748,-1.8738,-1.8727,-1.8714,-1.8706,-1.8694,-1.868,-1.8678,-1.865,-1.8644,-1.8634,-1.8626,-1.8611,-1.86,-1.8586,-1.8574,-1.8556,-1.8552,-1.8554,-1.8561,-1.8571,-1.8567,-1.8516,-1.8551,-1.855,-1.855,-1.855,-1.8549,-1.8774,-1.8772,-1.8754,-1.8744,-1.8732,-1.8722,-1.8718,-1.8702,-1.8693,-1.8679,-1.8665,-1.8658,-1.8642,-1.8621,-1.8611,-1.8605,-1.8596,-1.8598,-1.8599,-1.86,-1.8604,-1.8572,-1.8602,-1.8602,-1.8602,-1.8602,-1.8602,0,-1.8803,-1.8792,-1.8783,-1.8767,-1.876,-1.8745,-1.8731,-1.8726,-1.872,-1.8707,-1.8698,-1.8688,-1.8679,-1.866,-1.8649,-1.8649,-1.864,-1.8647,-1.8646,-1.8644,-1.8612,-1.8612,-1.8654,-1.8654,-1.8654,-1.8654,-1.8654,-1.8654,-1.8818,-1.8815,-1.8804,-1.8795,-1.8784,-1.8776,-1.877,-1.8761,-1.875,-1.8741,-1.8734,-1.8722,-1.8707,-1.8696,-1.8687,-1.8682,-1.868,-1.8689,-1.8681,-1.8651,-1.8646,-1.8642,-1.8641,-1.8689,-1.8689,-1.8714,-1.8714,-1.8715]},{"header":{"parameterUnit":"m.s-1","parameterCategory":1,"la1":30.2991,"la2":30.254,"lo1":-89.0895,"lo2":-89.0444,"dy":0.0017,"dx":0.0017,"nx":28,"ny":28,"refTime":"2024-06-14T09:00:00:Z","depth":0,"parameterNumber":3,"parameterNumberName":"V-component_of_WINDS"},"data":[0,0,0,0,0,0,0,0,0,0,0,0,0,0,0,0,0,0,0,0,0,0,0,0,0,0,0,0,0,0,0,0,0,0,0,0,0,0,0,0,0,0,0,0,0,0,0,0,0,0,0,0,0,0,0,0,0,0,3.2713,3.2713,0,3.2706,3.2706,3.2706,3.2776,3.2778,3.278,3.2782,3.2767,3.2765,3.2763,0,0,0,0,0,0,0,0,0,0,0,0,0,3.2779,3.2778,3.2713,3.2713,3.2712,3.2706,3.2706,3.2706,3.2776,3.2778,3.278,3.2783,3.2768,3.2765,3.2762,0,0,0,0,0,0,0,0,0,0,0,0,0,3.2759,3.2777,3.2713,3.2747,3.275,3.2706,3.2706,3.2706,3.2775,3.2778,3.2781,3.2784,3.2769,3.2765,3.2762,3.2683,0,0,3.2752,3.275,0,0,0,0,0,0,0,0,3.276,3.2756,3.2742,3.2744,3.2748,3.2745,3.2724,3.2698,3.2774,3.2765,3.2782,3.2785,3.2757,3.2755,3.2747,3.2682,3.2681,3.2752,3.275,3.2748,3.2747,0,0,0,0,0,0,0,3.2761,3.2757,3.271,3.2741,3.2745,3.276,3.2761,3.2719,3.2744,3.2766,3.2771,3.277,3.2759,3.275,3.2747,3.2681,3.2752,3.2749,3.2747,3.2745,3.2551,3.2548,0,0,0,0,0,0,3.2759,3.2758,3.271,3.271,3.2761,3.2757,3.2757,3.2743,3.2745,3.2748,3.2768,3.2773,3.2754,3.2751,3.2746,3.2654,3.2748,3.2745,3.2743,3.2554,3.255,3.2547,0,0,0,0,0,0,3.276,3.2754,3.271,3.2735,3.2731,3.2752,3.2736,3.2741,3.2732,3.2746,3.275,3.2754,3.2756,3.2751,3.2699,3.2654,3.2744,3.2741,3.2558,3.2553,3.2549,3.2467,0,0,0,0,0,0,3.2762,3.2754,3.2726,3.2734,3.2729,3.2664,3.2733,3.2739,3.2727,3.2735,3.2734,3.2737,3.2758,3.2703,3.2695,3.2651,3.2738,3.2562,3.2556,3.255,3.2474,3.246,3.2448,0,0,0,0,0,3.2764,3.2701,3.2724,3.2718,3.2694,3.2661,3.2658,3.2686,3.2723,3.2694,3.2703,3.2737,3.2661,3.2697,3.2689,3.2643,3.2565,3.2558,3.2551,3.2479,3.2463,3.2449,0,0,0,0,0,0,3.2684,3.2703,3.2728,3.2667,3.2662,3.2673,3.2637,3.2667,3.265,3.2657,3.269,3.2689,3.2631,3.2632,3.2672,3.2566,3.2619,3.261,3.2568,3.2552,3.2539,3.2539,3.2735,0,0,0,0,0,3.266,3.2634,3.2651,3.2595,3.2592,3.2615,3.2601,3.2623,3.2619,3.2616,3.2622,3.2614,3.2589,3.257,3.2548,3.2475,3.2475,3.2439,3.2427,3.2416,3.2407,3.2368,3.2352,3.2524,3.2524,3.2524,0,0,3.2608,3.2615,3.2596,3.2579,3.2578,3.2548,3.2612,3.2578,3.2555,3.261,3.2562,3.2565,3.2559,3.2496,3.2468,3.2495,3.236,3.2407,3.2399,3.2395,3.2359,3.2343,3.2328,3.2519,3.252,3.252,0,0,3.2498,3.2502,3.2456,3.2455,3.2454,3.247,3.2459,3.2466,3.2471,3.2424,3.2464,3.2437,3.2392,3.2386,3.2377,3.2267,3.2297,3.2259,3.2191,3.2153,3.2139,3.2127,3.2087,3.2072,3.225,3.225,3.225,0,3.2433,3.2393,3.2427,3.2391,3.2382,3.2433,3.2386,3.2382,3.2372,3.2363,3.2394,3.234,3.2339,3.2275,3.2249,3.224,3.2227,3.2258,3.2139,3.2127,3.2117,3.2079,3.2063,3.2245,3.2246,3.2246,3.2246,0,3.2312,3.2283,3.2246,3.2239,3.2225,3.2183,3.2209,3.2191,3.2215,3.2227,3.2177,3.2179,3.2157,3.2144,3.2165,3.2083,3.2099,3.2134,3.2187,3.2095,3.206,3.2045,3.2238,3.224,3.2241,3.2242,0,0,3.215,3.2164,3.215,3.2147,3.2151,3.2128,3.2088,3.207,3.2053,3.2045,3.201,3.1973,3.2005,3.1995,3.2016,3.1983,3.1895,3.2022,3.2022,3.1997,3.1803,3.1775,3.1758,3.1916,3.1913,3.1911,3.1803,0,3.2042,3.1977,3.2008,3.1938,3.1911,3.1961,3.1926,3.1923,3.1933,3.191,3.1921,3.1894,3.194,3.1934,3.1903,3.1912,3.1856,3.192,3.1882,3.188,3.1881,3.174,3.171,3.1608,3.1789,3.1787,3.1785,0,3.1908,3.1898,3.1826,3.1836,3.1825,3.1793,3.1779,3.1758,3.1755,3.1765,3.1755,3.1784,3.1743,3.1798,3.1741,3.1785,3.1771,3.1773,3.177,3.1765,3.1826,3.173,3.1576,3.156,3.1764,3.1766,3.1767,0,3.1795,3.1763,3.1716,3.1713,3.1723,3.1699,3.1702,3.1703,3.169,3.1677,3.1669,3.165,3.1639,3.1624,3.1646,3.1684,3.1586,3.1643,3.1591,3.159,3.1566,3.1567,3.1406,3.156,3.156,3.156,3.1561,0,3.1671,3.1625,3.1666,3.1637,3.1586,3.1621,3.1569,3.1577,3.1578,3.1549,3.1591,3.1563,3.1596,3.157,3.1587,3.1537,3.1532,3.1538,3.1542,3.1533,3.1532,3.1523,3.153,3.1556,3.1557,3.1558,3.1559,0,3.1536,3.1562,3.1514,3.1528,3.1531,3.1493,3.1504,3.1477,3.1491,3.1455,3.1448,3.147,3.1442,3.1464,3.1436,3.1448,3.1382,3.1397,3.1383,3.1387,3.1333,3.1337,3.1159,3.1137,3.1307,3.1305,3.1304,0,3.1454,3.142,3.1432,3.1418,3.1419,3.1394,3.1383,3.1416,3.1401,3.1397,3.1369,3.1346,3.1329,3.1282,3.1294,3.1272,3.1287,3.1226,3.1284,3.1275,3.1284,3.1285,3.1282,3.1213,3.1211,3.121,3.1209,0,3.1306,3.1321,3.1304,3.1291,3.1277,3.1268,3.1261,3.1246,3.1281,3.1262,3.1236,3.1223,3.1196,3.1171,3.1155,3.1155,3.1186,3.1191,3.1178,3.1166,3.1159,3.1161,3.1349,3.1194,3.1196,3.1197,3.1197,3.1198,3.1194,3.1167,3.1171,3.1151,3.115,3.1144,3.1119,3.1132,3.1112,3.1094,3.1115,3.1082,3.1081,3.1062,3.1059,3.1032,3.1057,3.1038,3.1033,3.1027,3.1019,3.1165,3.1029,3.103,3.103,3.1031,3.1031,0,3.1048,3.1054,3.1035,3.1026,3.101,3.1045,3.104,3.1023,3.0995,3.0992,3.0975,3.0945,3.0922,3.0933,3.0912,3.0889,3.0902,3.0882,3.0883,3.0882,3.0999,3.1012,3.0871,3.0871,3.0871,3.0871,3.0871,3.0871,3.0969,3.0924,3.094,3.0894,3.09,3.0871,3.0865,3.0859,3.0857,3.0822,3.0804,3.0813,3.0815,3.0795,3.0775,3.0779,3.0768,3.0742,3.075,3.0858,3.0874,3.0889,3.0901,3.074,3.074,3.0636,3.0635,3.0634]}]]